[[{"header":{"parameterUnit":"m.s-1","parameterCategory":1,"la1":30.2992,"la2":30.254,"lo1":-89.0895,"lo2":-89.0443,"dy":0.0025,"dx":0.0025,"nx":19,"ny":19,"refTime":"2026-05-12T09:00:00:Z","depth":0,"parameterNumber":2,"parameterNumberName":"U-component_of_WINDS"},"data":[0,0,0,-1.8618,-1.8619,-1.8636,-1.8636,-1.8678,-1.8678,0,0,0,0,0,0,0,0,0,0,0,-1.8625,-1.8626,-1.8618,-1.8619,-1.8636,-1.8636,-1.8678,-1.8678,0,0,0,0,0,0,0,0,0,0,0,-1.8625,-1.8625,-1.8626,-1.8619,-1.8636,-1.8636,-1.8678,-1.8658,0,0,0,0,0,0,0,0,0,0,-1.8638,-1.8656,-1.8625,-1.8626,-1.8619,-1.8636,-1.8636,-1.8657,-1.8659,-1.8679,0,-1.8699,0,-1.8689,-1.8682,-1.8683,0,0,0,-1.8611,-1.8654,-1.8647,-1.8626,-1.8619,-1.8636,-1.8626,-1.8658,-1.8661,-1.8682,-1.8699,-1.87,-1.869,-1.8683,-1.8683,-1.8821,-1.8822,0,0,-1.861,-1.8635,-1.8645,-1.865,-1.8647,-1.8625,-1.8626,-1.8659,-1.868,-1.8699,-1.8701,-1.8691,-1.8683,-1.8684,-1.882,-1.8821,0,0,0,-1.8613,-1.8635,-1.8627,-1.8648,-1.865,-1.8626,-1.8627,-1.8678,-1.8673,-1.8701,-1.8691,-1.8684,-1.8684,-1.8819,-1.8821,-1.8896,0,0,0,-1.8612,-1.8636,-1.8627,-1.8643,-1.865,-1.8664,-1.8646,-1.8671,-1.8674,-1.8691,-1.8684,-1.8685,-1.8818,-1.882,-1.8891,-1.8928,0,0,0,-1.862,-1.8637,-1.8643,-1.8644,-1.8652,-1.8663,-1.866,-1.8671,-1.8669,-1.8683,-1.8685,-1.8817,-1.8819,-1.8887,-1.8921,-1.8971,0,0,0,-1.8636,-1.8711,-1.8645,-1.8724,-1.8652,-1.8709,-1.8659,-1.8701,-1.8722,-1.8684,-1.8818,-1.882,-1.8886,-1.8917,-1.8967,-1.9019,-1.9042,0,0,-1.8745,-1.8725,-1.877,-1.8711,-1.8786,-1.8704,-1.879,-1.8787,-1.8766,-1.8804,-1.8807,-1.8893,-1.8921,-1.897,-1.9164,-1.9183,0,0,0,-1.8813,-1.8845,-1.8859,-1.888,-1.8877,-1.8878,-1.8858,-1.8857,-1.8887,-1.879,-1.8923,-1.8939,-1.8967,-1.8991,-1.9007,-1.903,-1.8832,-1.8832,-1.8832,-1.9004,-1.8971,-1.9042,-1.9011,-1.9031,-1.9009,-1.9022,-1.9016,-1.8979,-1.9011,-1.9023,-1.9144,-1.9172,-1.9184,-1.9208,-1.9046,-1.9046,-1.9047,-1.9047,-1.916,-1.9201,-1.9146,-1.9196,-1.9161,-1.9203,-1.9184,-1.9155,-1.9189,-1.9133,-1.9156,-1.9097,-1.9206,-1.9225,-1.9052,-1.9051,-1.9051,-1.905,-1.905,-1.9282,-1.9296,-1.9291,-1.9315,-1.9338,-1.9304,-1.9338,-1.9305,-1.9275,-1.9298,-1.9306,-1.9305,-1.93,-1.9304,-1.9304,-1.9304,-1.9305,-1.9305,-1.9305,-1.9412,-1.9404,-1.9436,-1.9438,-1.9445,-1.9452,-1.9428,-1.9435,-1.9434,-1.9408,-1.9407,-1.9367,-1.9222,-1.9186,-1.9312,-1.9311,-1.931,-1.9309,-1.9309,-1.9585,-1.9539,-1.959,-1.9598,-1.9596,-1.962,-1.9576,-1.9593,-1.9594,-1.9612,-1.9565,-1.9463,-1.9441,-1.9428,-1.9399,-1.9572,-1.9572,-1.9572,-1.9572,-1.9689,-1.9673,-1.9716,-1.973,-1.974,-1.9705,-1.9763,-1.9745,-1.9719,-1.9718,-1.9687,-1.9645,-1.9633,-1.9618,-1.9601,-1.9573,-1.9787,-1.9787,-1.9787,-1.9793,-1.9777,-1.9833,-1.9805,-1.9801,-1.9798,-1.9852,-1.987,-1.9832,-1.9795,-1.9716,-1.9707,-1.9638,-1.9617,-1.9581,-1.9555,-1.9503,0,0]},{"header":{"parameterUnit":"m.s-1","parameterCategory":1,"la1":30.2992,"la2":30.254,"lo1":-89.0895,"lo2":-89.0443,"dy":0.0025,"dx":0.0025,"nx":19,"ny":19,"refTime":"2026-05-12T09:00:00:Z","depth":0,"parameterNumber":3,"parameterNumberName":"V-component_of_WINDS"},"data":[0,0,0,-1.5671,-1.5675,-1.586,-1.5861,-1.6075,-1.6077,0,0,0,0,0,0,0,0,0,0,0,-1.5603,-1.5604,-1.5671,-1.5675,-1.586,-1.5861,-1.6075,-1.6077,0,0,0,0,0,0,0,0,0,0,0,-1.5603,-1.5604,-1.5605,-1.5676,-1.586,-1.5861,-1.6075,-1.5943,0,0,0,0,0,0,0,0,0,0,-1.5767,-1.5691,-1.5604,-1.5605,-1.5677,-1.586,-1.5861,-1.5937,-1.5951,-1.5982,0,-1.6006,0,-1.6045,-1.609,-1.6091,0,0,0,-1.5685,-1.5679,-1.5741,-1.5605,-1.5678,-1.5859,-1.5779,-1.5945,-1.5961,-1.6001,-1.6009,-1.6018,-1.6048,-1.6091,-1.6092,-1.6238,-1.6238,0,0,-1.5675,-1.5629,-1.573,-1.5751,-1.5721,-1.5773,-1.5785,-1.5955,-1.5962,-1.601,-1.6023,-1.6052,-1.6092,-1.6094,-1.6238,-1.6238,0,0,0,-1.5639,-1.5622,-1.568,-1.5741,-1.5776,-1.5779,-1.5792,-1.5954,-1.5977,-1.6026,-1.6054,-1.6094,-1.6096,-1.6238,-1.6238,-1.6205,0,0,0,-1.5633,-1.5601,-1.5675,-1.5649,-1.5773,-1.5868,-1.5787,-1.5965,-1.5986,-1.6053,-1.6094,-1.6098,-1.6238,-1.6238,-1.6205,-1.6196,0,0,0,-1.5596,-1.5597,-1.5619,-1.5646,-1.5724,-1.5866,-1.5899,-1.5971,-1.6003,-1.6091,-1.6098,-1.6237,-1.6238,-1.6206,-1.6197,-1.6221,0,0,0,-1.5542,-1.5586,-1.5617,-1.5678,-1.5722,-1.5844,-1.5898,-1.5991,-1.6063,-1.6095,-1.6238,-1.6238,-1.6206,-1.6198,-1.6221,-1.6233,-1.6234,0,0,-1.5573,-1.5588,-1.5628,-1.5661,-1.5765,-1.5819,-1.5919,-1.6028,-1.6078,-1.6182,-1.6186,-1.6205,-1.6197,-1.6221,-1.6254,-1.6254,0,0,0,-1.5622,-1.5649,-1.5687,-1.5753,-1.5837,-1.5908,-1.6006,-1.6047,-1.6137,-1.6122,-1.6222,-1.6219,-1.6234,-1.6242,-1.6242,-1.6259,-1.624,-1.624,-1.624,-1.5599,-1.5661,-1.573,-1.5813,-1.5877,-1.5977,-1.6034,-1.6106,-1.615,-1.6172,-1.6203,-1.6215,-1.6223,-1.6223,-1.6239,-1.6214,-1.6214,-1.6214,-1.6214,-1.5649,-1.5697,-1.5755,-1.5842,-1.5906,-1.598,-1.6079,-1.6107,-1.6185,-1.6197,-1.6214,-1.6221,-1.6221,-1.6239,-1.6212,-1.6213,-1.6213,-1.6213,-1.6213,-1.5641,-1.5675,-1.5723,-1.5825,-1.5896,-1.598,-1.6052,-1.6109,-1.6162,-1.6179,-1.6218,-1.6219,-1.6226,-1.6194,-1.6194,-1.6194,-1.6194,-1.6194,-1.6194,-1.5613,-1.5668,-1.5723,-1.5815,-1.5865,-1.5938,-1.6039,-1.609,-1.616,-1.6196,-1.6196,-1.6237,-1.621,-1.6201,-1.6195,-1.6195,-1.6195,-1.6195,-1.6195,-1.564,-1.5643,-1.5726,-1.5776,-1.589,-1.5956,-1.6028,-1.6126,-1.6176,-1.621,-1.6248,-1.6218,-1.6238,-1.6238,-1.6232,-1.6234,-1.6234,-1.6234,-1.6234,-1.5632,-1.5648,-1.5746,-1.5822,-1.5903,-1.5976,-1.6068,-1.6147,-1.623,-1.6264,-1.6272,-1.6269,-1.6266,-1.6288,-1.6287,-1.6282,-1.6297,-1.6297,-1.6297,-1.5652,-1.5679,-1.5746,-1.5827,-1.592,-1.5998,-1.6087,-1.6171,-1.6265,-1.6301,-1.6293,-1.629,-1.6285,-1.628,-1.6314,-1.6312,-1.6304,0,0]}]]